Погода в Октябрьском

Россия / Новосибирская область     53°30′45″N   77°48′22″E
темп.,
°C
ветер,
м/с
пор.,
м/с
влажн.,
%
обл.,
%
осадки,
мм/ч
давл.,
гПа
погр.,
м
13 апреля, вт
вт1301:00+1сз4896100 0.0 1031239
04:00+2сз4994100 0.0 1031304
07:00+2с51097100 0.4 1033369
10:00+4ссз4885100 0.0 1035473
13:00+7ссз687514 0.0 1036755
16:00+7ссз67620 0.0 1037806
19:00+6сз67645 0.0 1037717
22:00+2сз48888 0.0 1039339
14 апреля, ср
ср1401:00+1сз479391 0.0 1039345
04:00+1сз4588100 0.0 1038421
07:00+2зсз4585100 0.0 1038443
10:00+4зюз567784 0.0 1037398
13:00+8з7954100 0.0 1034745
16:00+11з81149100 0.0 1031975
19:00+10з71258100 0.0 1029793
22:00+8з4107677 0.0 1029273
15 апреля, чт
чт1501:00+5зсз35919 0.0 1029127
04:00+5з2391100 0.0 102869
07:00+5з2391100 0.1 102854
10:00+6зюз3589100 0.0 1027152
13:00+8зюз3482100 0.0 1026226
16:00+14зюз45580 0.0 1024970
19:00+15зюз35558 0.0 1023608
22:00+10зсз347838 0.0 102252
16 апреля, пт
пт1601:00+9зюз34890 0.0 102152
04:00+8зюз34925 0.0 102060
07:00+6юз34925 0.0 101961
10:00+11зюз46789 0.0 1018286
13:00+16зюз57564 0.0 10161031
16:00+18зюз56465 0.0 10141566
19:00+18зюз464473 0.0 10121324
22:00+13з3459100 0.0 101155
17 апреля, сб
сб1701:00+11зюз3361100 0.0 100932
04:00+8с6890100 0.0 1009252
07:00+4ссв7108597 0.0 1010461
10:00+1ссв91182100 0.0 1012633
13:00+2ссв8107596 0.4 1014857
16:00+2ссв7765100 0.0 10161073
19:00+2ссв455894 0.1 10171220
22:000ссв226591 0.0 101828